| time (UTC) | temp F | wind direction | speed knots | gust knots | rain 1hr in | rain 24hr in | rain mn in | humidity % | barometer mb |
| 20260506185603 | 53 | 79 | 0.9 | 1.7 | 0.00 | 0.01 | 0.01 | 74 | 1012.5 |
| 20260506185103 | 53 | 79 | 0.9 | 1.7 | 0.00 | 0.01 | 0.01 | 73 | 1012.4 |
| 20260506184559 | 53 | 79 | 0.9 | 2.6 | 0.00 | 0.01 | 0.01 | 72 | 1012.2 |
| 20260506184102 | 53 | 78 | 1.7 | 2.6 | 0.00 | 0.01 | 0.01 | 72 | 1012.2 |
| 20260506183600 | 53 | 79 | 1.7 | 2.6 | 0.00 | 0.01 | 0.01 | 73 | 1012.1 |
| 20260506183102 | 53 | 79 | 1.7 | 2.6 | 0.00 | 0.01 | 0.01 | 73 | 1012.1 |
| 20260506182601 | 54 | 68 | 0.9 | 2.6 | 0.00 | 0.01 | 0.01 | 73 | 1012.0 |
| 20260506182059 | 53 | 59 | 0.9 | 1.7 | 0.00 | 0.01 | 0.01 | 72 | 1012.0 |
| 20260506181600 | 54 | 59 | 1.7 | 2.6 | 0.00 | 0.01 | 0.01 | 72 | 1011.9 |
| 20260506181103 | 54 | 59 | 1.7 | 3.5 | 0.00 | 0.01 | 0.01 | 72 | 1011.8 |
| 20260506180557 | 54 | 77 | 1.7 | 3.5 | 0.00 | 0.01 | 0.01 | 72 | 1011.8 |
| 20260506180059 | 54 | 77 | 1.7 | 2.6 | 0.00 | 0.01 | 0.01 | 72 | 1011.8 |
| 20260506175635 | 53 | 58 | 1.7 | 2.6 | 0.00 | 0.01 | 0.01 | 72 | 1011.7 |
| 20260506174553 | 54 | 58 | 0.9 | 1.7 | 0.00 | 0.01 | 0.01 | 73 | 1011.5 |
| 20260506174052 | 54 | 58 | 0.9 | 3.5 | 0.00 | 0.01 | 0.01 | 74 | 1011.5 |
| 20260506173554 | 54 | 58 | 1.7 | 3.5 | 0.00 | 0.01 | 0.01 | 73 | 1011.4 |
| 20260506173052 | 54 | 65 | 0.9 | 2.6 | 0.00 | 0.01 | 0.01 | 74 | 1011.4 |
| 20260506172550 | 54 | 56 | 0.9 | 2.6 | 0.00 | 0.01 | 0.01 | 73 | 1011.3 |
| 20260506172051 | 54 | 52 | 1.7 | 2.6 | 0.00 | 0.01 | 0.01 | 73 | 1011.3 |
| 20260506171549 | 54 | 69 | 1.7 | 5.2 | 0.00 | 0.01 | 0.01 | 73 | 1011.2 |
| 20260506171117 | 54 | 70 | 1.7 | 5.2 | 0.00 | 0.01 | 0.01 | 73 | 1011.2 |
| 20260506170046 | 54 | 34 | 3.5 | 6.1 | 0.00 | 0.01 | 0.01 | 72 | 1011.1 |
| 20260506165552 | 54 | 76 | 3.5 | 7.0 | 0.00 | 0.01 | 0.01 | 71 | 1011.2 |
| 20260506165054 | 54 | 48 | 4.3 | 7.0 | 0.00 | 0.01 | 0.01 | 70 | 1011.1 |
| 20260506164622 | 54 | 62 | 5.2 | 8.7 | 0.00 | 0.01 | 0.01 | 70 | 1011.1 |
| 20260506163548 | 55 | 57 | 6.1 | 11.3 | 0.00 | 0.01 | 0.01 | 69 | 1011.2 |
| 20260506163121 | 55 | 62 | 7.0 | 11.3 | 0.00 | 0.01 | 0.01 | 67 | 1011.1 |
| 20260506162045 | 55 | 67 | 5.2 | 11.3 | 0.00 | 0.01 | 0.01 | 66 | 1011.1 |
| 20260506161547 | 55 | 347 | 4.3 | 9.6 | 0.00 | 0.01 | 0.01 | 69 | 1011.1 |
| 20260506161047 | 55 | 29 | 4.3 | 9.6 | 0.00 | 0.01 | 0.01 | 68 | 1011.1 |
| 20260506160543 | 55 | 33 | 4.3 | 9.6 | 0.00 | 0.01 | 0.01 | 68 | 1011.1 |
| 20260506160046 | 55 | 27 | 4.3 | 7.8 | 0.00 | 0.01 | 0.01 | 70 | 1011.2 |
| 20260506155542 | 55 | 71 | 4.3 | 8.7 | 0.00 | 0.01 | 0.01 | 68 | 1011.2 |
| 20260506155059 | 55 | 9 | 4.3 | 8.7 | 0.00 | 0.01 | 0.01 | 68 | 1011.1 |
| 20260506154621 | 55 | 308 | 6.1 | 8.7 | 0.00 | 0.01 | 0.01 | 68 | 1011.1 |
| 20260506153541 | 55 | 22 | 6.1 | 12.2 | 0.00 | 0.01 | 0.01 | 68 | 1011.1 |
| 20260506153048 | 55 | 71 | 5.2 | 10.4 | 0.00 | 0.01 | 0.01 | 69 | 1011.1 |
| 20260506152543 | 55 | 54 | 5.2 | 10.4 | 0.00 | 0.01 | 0.01 | 69 | 1011.0 |
| 20260506152059 | 55 | 51 | 5.2 | 10.4 | 0.00 | 0.01 | 0.01 | 69 | 1011.1 |
| 20260506151541 | 55 | 75 | 5.2 | 11.3 | 0.00 | 0.01 | 0.01 | 69 | 1011.0 |
| 20260506151042 | 55 | 93 | 6.1 | 11.3 | 0.00 | 0.01 | 0.01 | 69 | 1011.1 |
| 20260506150543 | 55 | 50 | 5.2 | 11.3 | 0.00 | 0.01 | 0.01 | 68 | 1011.1 |
| 20260506150042 | 55 | 28 | 5.2 | 11.3 | 0.00 | 0.01 | 0.01 | 69 | 1011.1 |
| 20260506145541 | 55 | 29 | 5.2 | 10.4 | 0.00 | 0.01 | 0.01 | 69 | 1011.0 |
| 20260506145047 | 55 | 47 | 5.2 | 10.4 | 0.00 | 0.01 | 0.01 | 69 | 1011.0 |
| 20260506144539 | 55 | 251 | 5.2 | 10.4 | 0.00 | 0.01 | 0.01 | 69 | 1011.0 |
| 20260506144113 | 55 | 41 | 5.2 | 10.4 | 0.00 | 0.01 | 0.01 | 69 | 1011.0 |
| 20260506143039 | 55 | 330 | 6.1 | 14.8 | 0.00 | 0.01 | 0.01 | 67 | 1011.0 |
| 20260506142541 | 55 | 4 | 6.1 | 13.0 | 0.00 | 0.01 | 0.01 | 66 | 1010.9 |
| 20260506142045 | 56 | 61 | 7.0 | 15.6 | 0.00 | 0.01 | 0.01 | 66 | 1010.9 |
| 20260506141539 | 56 | 67 | 7.8 | 15.6 | 0.00 | 0.01 | 0.01 | 65 | 1010.9 |
| 20260506141039 | 56 | 87 | 7.0 | 10.4 | 0.00 | 0.01 | 0.01 | 65 | 1010.8 |
| 20260506140537 | 56 | 46 | 7.0 | 15.6 | 0.00 | 0.01 | 0.01 | 62 | 1010.8 |
| 20260506140039 | 57 | 25 | 8.7 | 15.6 | 0.00 | 0.01 | 0.01 | 63 | 1010.8 |
| 20260506135538 | 57 | 335 | 8.7 | 15.6 | 0.00 | 0.01 | 0.01 | 60 | 1010.8 |
| 20260506135043 | 58 | 33 | 7.8 | 15.6 | 0.00 | 0.01 | 0.01 | 58 | 1010.7 |
| 20260506134617 | 58 | 28 | 7.8 | 13.9 | 0.00 | 0.01 | 0.01 | 58 | 1010.6 |
| 20260506133537 | 57 | 5 | 9.6 | 18.2 | 0.00 | 0.01 | 0.01 | 61 | 1010.6 |
| 20260506133038 | 57 | 345 | 8.7 | 17.4 | 0.00 | 0.01 | 0.01 | 62 | 1010.7 |
| 20260506132538 | 56 | 7 | 8.7 | 13.9 | 0.00 | 0.01 | 0.01 | 63 | 1010.6 |
| 20260506132042 | 56 | 354 | 7.0 | 13.9 | 0.00 | 0.01 | 0.01 | 64 | 1010.5 |
| 20260506131656 | 56 | 53 | 6.1 | 13.0 | 0.00 | 0.01 | 0.01 | 68 | 1010.5 |
| 20260506130114 | 56 | 6 | 5.2 | 12.2 | 0.00 | 0.01 | 0.01 | 71 | 1010.5 |
| 20260506125037 | 56 | 6 | 7.0 | 12.2 | 0.00 | 0.01 | 0.01 | 72 | 1010.5 |
| 20260506124538 | 56 | 357 | 7.0 | 13.0 | 0.00 | 0.01 | 0.01 | 72 | 1010.5 |
| 20260506124039 | 55 | 28 | 7.0 | 13.0 | 0.00 | 0.01 | 0.01 | 72 | 1010.5 |
| 20260506123539 | 55 | 357 | 7.8 | 13.0 | 0.00 | 0.01 | 0.01 | 72 | 1010.4 |
| 20260506123040 | 55 | 357 | 7.0 | 13.0 | 0.00 | 0.01 | 0.01 | 72 | 1010.4 |
| 20260506122536 | 55 | 27 | 7.0 | 13.0 | 0.00 | 0.01 | 0.01 | 72 | 1010.4 |
| 20260506122035 | 55 | 16 | 7.8 | 13.9 | 0.00 | 0.01 | 0.01 | 73 | 1010.3 |
| 20260506121538 | 55 | 1 | 7.8 | 14.8 | 0.00 | 0.01 | 0.01 | 74 | 1010.3 |
| 20260506121111 | 55 | 14 | 7.0 | 14.8 | 0.00 | 0.01 | 0.01 | 75 | 1010.3 |
| 20260506120037 | 55 | 314 | 7.8 | 14.8 | 0.00 | 0.01 | 0.01 | 75 | 1010.3 |
| 20260506115532 | 55 | 2 | 7.8 | 14.8 | 0.00 | 0.01 | 0.01 | 75 | 1010.3 |
| 20260506115117 | 55 | 335 | 7.8 | 13.9 | 0.00 | 0.01 | 0.01 | 77 | 1010.2 |
| 20260506114108 | 56 | 325 | 8.7 | 14.8 | 0.00 | 0.01 | 0.01 | 76 | 1010.4 |
| 20260506113035 | 56 | 10 | 7.8 | 15.6 | 0.00 | 0.01 | 0.01 | 76 | 1010.3 |
| 20260506112532 | 56 | 347 | 8.7 | 14.8 | 0.00 | 0.01 | 0.01 | 76 | 1010.3 |
| 20260506112032 | 56 | 6 | 8.7 | 15.6 | 0.00 | 0.01 | 0.01 | 75 | 1010.3 |
| 20260506111537 | 56 | 8 | 9.6 | 16.5 | 0.00 | 0.01 | 0.01 | 75 | 1010.3 |
| 20260506111033 | 56 | 3 | 8.7 | 16.5 | 0.00 | 0.01 | 0.01 | 75 | 1010.2 |
| 20260506110545 | 57 | 352 | 7.0 | 13.0 | 0.00 | 0.01 | 0.01 | 73 | 1010.3 |
| 20260506110034 | 57 | 325 | 6.1 | 13.0 | 0.00 | 0.01 | 0.01 | 74 | 1010.1 |
| 20260506105530 | 56 | 310 | 7.0 | 13.0 | 0.00 | 0.01 | 0.01 | 72 | 1010.3 |
| 20260506105033 | 56 | 339 | 8.7 | 15.6 | 0.00 | 0.01 | 0.01 | 71 | 1010.0 |
| 20260506104534 | 56 | 349 | 10.4 | 16.5 | 0.00 | 0.01 | 0.01 | 71 | 1010.1 |
| 20260506104034 | 57 | 31 | 9.6 | 16.5 | 0.00 | 0.01 | 0.01 | 70 | 1010.1 |
| 20260506103532 | 57 | 335 | 7.8 | 14.8 | 0.00 | 0.01 | 0.01 | 69 | 1010.2 |
| 20260506103031 | 57 | 31 | 7.8 | 13.0 | 0.00 | 0.01 | 0.01 | 69 | 1010.0 |
| 20260506102531 | 58 | 14 | 7.8 | 15.6 | 0.00 | 0.01 | 0.01 | 69 | 1009.9 |
| 20260506102034 | 58 | 21 | 7.8 | 15.6 | 0.00 | 0.01 | 0.01 | 69 | 1009.9 |
| 20260506101533 | 58 | 330 | 8.7 | 15.6 | 0.00 | 0.01 | 0.01 | 69 | 1010.0 |
| 20260506101038 | 58 | 358 | 7.8 | 15.6 | 0.00 | 0.01 | 0.01 | 69 | 1010.0 |
| 20260506100534 | 58 | 112 | 7.8 | 13.0 | 0.00 | 0.01 | 0.01 | 70 | 1009.9 |
| 20260506100033 | 58 | 24 | 7.8 | 16.5 | 0.00 | 0.01 | 0.01 | 71 | 1009.8 |
| 20260506095530 | 58 | 351 | 7.8 | 17.4 | 0.00 | 0.01 | 0.01 | 71 | 1009.9 |
| 20260506095032 | 57 | 349 | 8.7 | 17.4 | 0.00 | 0.01 | 0.01 | 70 | 1009.8 |
| 20260506094530 | 57 | 12 | 7.8 | 13.0 | 0.00 | 0.01 | 0.01 | 71 | 1009.8 |
| 20260506094033 | 57 | 321 | 8.7 | 14.8 | 0.00 | 0.01 | 0.01 | 71 | 1009.8 |
| 20260506093531 | 57 | 4 | 9.6 | 17.4 | 0.00 | 0.01 | 0.01 | 71 | 1010.0 |
| 20260506093031 | 57 | 21 | 8.7 | 17.4 | 0.00 | 0.01 | 0.01 | 72 | 1009.9 |
| 20260506092532 | 57 | 357 | 9.6 | 17.4 | 0.00 | 0.01 | 0.01 | 73 | 1009.8 |
| 20260506092028 | 57 | 19 | 9.6 | 17.4 | 0.00 | 0.01 | 0.01 | 73 | 1009.7 |
| 20260506091529 | 56 | 33 | 7.8 | 13.9 | 0.00 | 0.01 | 0.01 | 77 | 1009.7 |
| 20260506091030 | 56 | 339 | 7.8 | 13.9 | 0.00 | 0.01 | 0.01 | 81 | 1009.6 |
| 20260506090529 | 56 | 330 | 7.8 | 13.9 | 0.00 | 0.01 | 0.01 | 81 | 1009.5 |
| 20260506090027 | 56 | 335 | 7.8 | 13.9 | 0.00 | 0.01 | 0.01 | 82 | 1009.7 |
| 20260506085527 | 55 | 8 | 7.0 | 13.9 | 0.00 | 0.01 | 0.01 | 82 | 1009.6 |
| 20260506085026 | 55 | 1 | 7.0 | 13.9 | 0.00 | 0.01 | 0.01 | 81 | 1009.6 |
| 20260506084524 | 55 | 16 | 7.0 | 13.9 | 0.00 | 0.01 | 0.01 | 82 | 1009.6 |
| 20260506084027 | 55 | 285 | 7.0 | 13.9 | 0.00 | 0.01 | 0.01 | 83 | 1009.5 |
| 20260506083526 | 55 | 335 | 7.0 | 15.6 | 0.00 | 0.01 | 0.01 | 84 | 1009.5 |
| 20260506083028 | 54 | 26 | 7.0 | 15.6 | 0.00 | 0.01 | 0.01 | 84 | 1009.6 |
| 20260506082526 | 54 | 24 | 7.0 | 13.9 | 0.00 | 0.01 | 0.01 | 85 | 1009.4 |
| 20260506082026 | 54 | 312 | 7.8 | 14.8 | 0.00 | 0.01 | 0.01 | 85 | 1009.4 |
| 20260506081525 | 54 | 10 | 7.8 | 14.8 | 0.00 | 0.01 | 0.01 | 86 | 1009.5 |
| 20260506081058 | 54 | 330 | 8.7 | 16.5 | 0.00 | 0.01 | 0.01 | 87 | 1009.5 |
| 20260506072517 | 52 | 282 | 7.8 | 13.9 | 0.00 | 0.01 | 0.01 | 90 | 1009.4 |
| 20260506072014 | 52 | 318 | 7.0 | 13.9 | 0.00 | 0.01 | 0.01 | 90 | 1009.6 |
| 20260506071513 | 52 | 330 | 5.2 | 10.4 | 0.00 | 0.01 | 0.01 | 91 | 1009.4 |
| 20260506071052 | 52 | 19 | 7.0 | 12.2 | 0.00 | 0.01 | 0.01 | 91 | 1009.2 |
| 20260506062513 | 50 | 23 | 7.8 | 13.9 | 0.00 | 0.01 | 0.01 | 94 | 1009.0 |
| 20260506062011 | 50 | 10 | 7.8 | 13.9 | 0.00 | 0.01 | 0.01 | 94 | 1009.1 |
| 20260506061510 | 50 | 330 | 7.8 | 15.6 | 0.00 | 0.01 | 0.01 | 95 | 1009.1 |
| 20260506061008 | 50 | 325 | 7.0 | 15.6 | 0.00 | 0.01 | 0.01 | 95 | 1009.0 |
| 20260506060507 | 50 | 306 | 6.1 | 13.0 | 0.00 | 0.01 | 0.01 | 95 | 1009.0 |
| 20260506051005 | 49 | 330 | 5.2 | 8.7 | 0.00 | 0.01 | 0.01 | 96 | 1009.1 |
| 20260506050506 | 49 | 297 | 5.2 | 12.2 | 0.00 | 0.01 | 0.01 | 96 | 1009.2 |
| 20260506050109 | 49 | 335 | 6.1 | 12.2 | 0.00 | 0.01 | 0.01 | 96 | 1009.2 |
| 20260506044514 | 49 | 35 | 7.0 | 11.3 | 0.01 | 0.01 | 0.01 | 96 | 1009.2 |
| 20260506044005 | 49 | 321 | 5.2 | 11.3 | 0.01 | 0.01 | 0.01 | 96 | 1009.2 |
| 20260506043534 | 49 | 318 | 4.3 | 8.7 | 0.01 | 0.01 | 0.01 | 96 | 1009.2 |
| 20260506042534 | 49 | 307 | 4.3 | 10.4 | 0.01 | 0.01 | 0.01 | 96 | 1009.2 |
| 20260506041504 | 49 | 330 | 4.3 | 7.8 | 0.01 | 0.01 | 0.01 | 96 | 1009.2 |
| 20260506041004 | 49 | 330 | 4.3 | 9.6 | 0.01 | 0.01 | 0.01 | 95 | 1009.2 |
| 20260506040503 | 48 | 321 | 5.2 | 9.6 | 0.01 | 0.01 | 0.01 | 95 | 1009.3 |
| 20260506040012 | 48 | 344 | 5.2 | 10.4 | 0.01 | 0.01 | 0.01 | 95 | 1009.3 |
| 20260506035505 | 48 | 339 | 4.3 | 10.4 | 0.01 | 0.01 | 0.01 | 95 | 1009.3 |
| 20260506035005 | 48 | 16 | 5.2 | 9.6 | 0.00 | 0.00 | 0.00 | 95 | 1009.4 |
| 20260506034507 | 48 | 325 | 6.1 | 9.6 | 0.00 | 0.00 | 0.00 | 94 | 1009.4 |
| 20260506034006 | 49 | 349 | 7.0 | 11.3 | 0.00 | 0.00 | 0.00 | 94 | 1009.4 |
| 20260506033502 | 49 | 12 | 6.1 | 11.3 | 0.00 | 0.00 | 0.00 | 94 | 1009.4 |
| 20260506033005 | 49 | 39 | 5.2 | 11.3 | 0.00 | 0.00 | 0.00 | 94 | 1009.4 |
| 20260506032505 | 49 | 319 | 6.1 | 11.3 | 0.00 | 0.00 | 0.00 | 94 | 1009.5 |
| 20260506032005 | 49 | 353 | 6.1 | 11.3 | 0.00 | 0.00 | 0.00 | 94 | 1009.5 |
| 20260506031504 | 49 | 356 | 5.2 | 9.6 | 0.00 | 0.00 | 0.00 | 93 | 1009.4 |
| 20260506031004 | 49 | 10 | 6.1 | 9.6 | 0.00 | 0.00 | 0.00 | 93 | 1009.5 |
| 20260506030503 | 49 | 339 | 5.2 | 9.6 | 0.00 | 0.00 | 0.00 | 92 | 1009.5 |
| 20260506030004 | 49 | 330 | 5.2 | 12.2 | 0.00 | 0.00 | 0.00 | 92 | 1009.5 |
| 20260506025503 | 49 | 318 | 6.1 | 12.2 | 0.00 | 0.00 | 0.00 | 91 | 1009.6 |
| 20260506025004 | 49 | 347 | 7.0 | 13.0 | 0.00 | 0.00 | 0.00 | 91 | 1009.7 |
| 20260506024503 | 50 | 353 | 6.1 | 13.0 | 0.00 | 0.00 | 0.00 | 90 | 1009.6 |
| 20260506024004 | 49 | 6 | 4.3 | 11.3 | 0.00 | 0.00 | 0.00 | 90 | 1009.6 |
| 20260506023531 | 49 | 316 | 5.2 | 8.7 | 0.00 | 0.00 | 0.00 | 90 | 1009.5 |
| 20260506022504 | 49 | 318 | 5.2 | 9.6 | 0.00 | 0.00 | 0.00 | 90 | 1009.6 |
| 20260506022006 | 49 | 314 | 6.1 | 9.6 | 0.00 | 0.00 | 0.00 | 90 | 1009.6 |
| 20260506021505 | 49 | 325 | 5.2 | 9.6 | 0.00 | 0.00 | 0.00 | 90 | 1009.6 |
| 20260506021005 | 49 | 330 | 5.2 | 9.6 | 0.00 | 0.00 | 0.00 | 89 | 1009.5 |
| 20260506020502 | 49 | 330 | 5.2 | 10.4 | 0.00 | 0.00 | 0.00 | 89 | 1009.6 |
| 20260506020119 | 49 | 353 | 5.2 | 10.4 | 0.00 | 0.00 | 0.00 | 89 | 1009.6 |
| 20260506014505 | 49 | 330 | 4.3 | 7.8 | 0.00 | 0.00 | 0.00 | 89 | 1009.5 |
| 20260506014025 | 49 | 308 | 4.3 | 7.8 | 0.00 | 0.00 | 0.00 | 89 | 1009.6 |
| 20260506013005 | 49 | 349 | 4.3 | 8.7 | 0.00 | 0.00 | 0.00 | 89 | 1009.7 |
| 20260506012504 | 49 | 317 | 5.2 | 8.7 | 0.00 | 0.00 | 0.00 | 88 | 1009.7 |
| 20260506012003 | 49 | 325 | 5.2 | 8.7 | 0.00 | 0.00 | 0.00 | 88 | 1009.7 |
| 20260506011504 | 49 | 339 | 5.2 | 9.6 | 0.00 | 0.00 | 0.00 | 88 | 1009.7 |
| 20260506011004 | 50 | 306 | 5.2 | 9.6 | 0.00 | 0.00 | 0.00 | 88 | 1009.8 |
| 20260506010502 | 50 | 353 | 5.2 | 10.4 | 0.00 | 0.00 | 0.00 | 89 | 1009.9 |
| 20260506010106 | 50 | 339 | 5.2 | 10.4 | 0.00 | 0.00 | 0.00 | 89 | 1009.9 |
| 20260506004512 | 50 | 4 | 5.2 | 10.4 | 0.00 | 0.00 | 0.00 | 88 | 1010.0 |
| 20260506004045 | 50 | 330 | 4.3 | 10.4 | 0.00 | 0.00 | 0.00 | 88 | 1010.1 |
| 20260506003002 | 50 | 325 | 6.1 | 13.9 | 0.00 | 0.00 | 0.00 | 87 | 1010.2 |
| 20260506002504 | 50 | 339 | 7.0 | 13.9 | 0.00 | 0.00 | 0.00 | 87 | 1010.2 |
| 20260506002002 | 50 | 345 | 6.1 | 12.2 | 0.00 | 0.00 | 0.00 | 86 | 1010.2 |
| 20260506001502 | 50 | 339 | 6.1 | 13.0 | 0.00 | 0.00 | 0.00 | 86 | 1010.3 |
| 20260506001005 | 49 | 10 | 6.1 | 13.0 | 0.00 | 0.00 | 0.00 | 86 | 1010.3 |
| 20260506000504 | 49 | 1 | 5.2 | 13.0 | 0.00 | 0.00 | 0.00 | 86 | 1010.3 |
| 20260506000042 | 49 | 343 | 5.2 | 13.0 | 0.00 | 0.00 | 0.00 | 85 | 1010.3 |
| 20260505235035 | 49 | 319 | 5.2 | 9.6 | 0.00 | 0.00 | 0.00 | 85 | 1010.4 |
| 20260505233959 | 49 | 330 | 5.2 | 9.6 | 0.00 | 0.00 | 0.00 | 85 | 1010.5 |
| 20260505233458 | 49 | 343 | 4.3 | 9.6 | 0.00 | 0.00 | 0.00 | 85 | 1010.5 |
| 20260505232959 | 49 | 357 | 5.2 | 9.6 | 0.00 | 0.00 | 0.00 | 85 | 1010.5 |
| 20260505232501 | 49 | 342 | 4.3 | 9.6 | 0.00 | 0.00 | 0.00 | 84 | 1010.6 |
| 20260505232000 | 49 | 330 | 4.3 | 7.8 | 0.00 | 0.00 | 0.00 | 84 | 1010.6 |
| 20260505231459 | 49 | 306 | 4.3 | 8.7 | 0.00 | 0.00 | 0.00 | 84 | 1010.7 |
| 20260505231000 | 49 | 320 | 4.3 | 9.6 | 0.00 | 0.00 | 0.00 | 84 | 1010.7 |
| 20260505230513 | 49 | 4 | 5.2 | 9.6 | 0.00 | 0.00 | 0.00 | 84 | 1010.7 |
| 20260505230036 | 49 | 355 | 5.2 | 8.7 | 0.00 | 0.00 | 0.00 | 84 | 1010.8 |
| 20260505224957 | 49 | 320 | 3.5 | 8.7 | 0.00 | 0.00 | 0.00 | 85 | 1010.9 |
| 20260505224456 | 49 | 3 | 3.5 | 9.6 | 0.00 | 0.00 | 0.00 | 85 | 1010.8 |
| 20260505224043 | 49 | 12 | 4.3 | 9.6 | 0.00 | 0.00 | 0.00 | 85 | 1010.8 |
| 20260505222959 | 49 | 335 | 4.3 | 8.7 | 0.00 | 0.00 | 0.00 | 85 | 1010.9 |
| 20260505222459 | 49 | 19 | 4.3 | 10.4 | 0.00 | 0.00 | 0.00 | 85 | 1010.9 |
| 20260505222128 | 49 | 354 | 3.5 | 10.4 | 0.00 | 0.00 | 0.00 | 85 | 1011.0 |
| 20260505220454 | 49 | 358 | 5.2 | 10.4 | 0.00 | 0.00 | 0.00 | 85 | 1011.0 |
| 20260505215955 | 49 | 342 | 4.3 | 8.7 | 0.00 | 0.00 | 0.00 | 85 | 1011.1 |
| 20260505215453 | 49 | 318 | 5.2 | 10.4 | 0.00 | 0.00 | 0.00 | 85 | 1011.0 |
| 20260505214953 | 49 | 321 | 5.2 | 10.4 | 0.00 | 0.00 | 0.00 | 85 | 1011.1 |
| 20260505214454 | 49 | 339 | 5.2 | 9.6 | 0.00 | 0.00 | 0.00 | 85 | 1011.1 |
| 20260505214004 | 49 | 330 | 4.3 | 10.4 | 0.00 | 0.00 | 0.00 | 85 | 1011.1 |
| 20260505213449 | 50 | 339 | 3.5 | 10.4 | 0.00 | 0.00 | 0.00 | 85 | 1011.1 |
| 20260505213020 | 50 | 325 | 4.3 | 8.7 | 0.00 | 0.00 | 0.00 | 84 | 1011.1 |
| 20260505211948 | 50 | 345 | 6.1 | 12.2 | 0.00 | 0.00 | 0.00 | 83 | 1011.1 |
| 20260505211449 | 50 | 335 | 6.1 | 12.2 | 0.00 | 0.00 | 0.00 | 83 | 1011.1 |
| 20260505210959 | 50 | 325 | 5.2 | 10.4 | 0.00 | 0.00 | 0.00 | 82 | 1011.1 |
| 20260505210450 | 50 | 339 | 5.2 | 11.3 | 0.00 | 0.00 | 0.00 | 83 | 1011.2 |
| 20260505205950 | 51 | 325 | 5.2 | 11.3 | 0.00 | 0.00 | 0.00 | 83 | 1011.2 |
| 20260505205450 | 51 | 330 | 5.2 | 11.3 | 0.00 | 0.00 | 0.00 | 83 | 1011.3 |
| 20260505204951 | 51 | 4 | 6.1 | 12.2 | 0.00 | 0.00 | 0.00 | 82 | 1011.2 |
| 20260505204451 | 51 | 347 | 6.1 | 12.2 | 0.00 | 0.00 | 0.00 | 82 | 1011.3 |
| 20260505203956 | 51 | 6 | 7.0 | 13.0 | 0.00 | 0.00 | 0.00 | 82 | 1011.3 |
| 20260505203451 | 51 | 313 | 7.8 | 13.0 | 0.00 | 0.00 | 0.00 | 82 | 1011.4 |
| 20260505203028 | 51 | 325 | 7.8 | 13.0 | 0.00 | 0.00 | 0.00 | 81 | 1011.3 |
| 20260505201946 | 51 | 29 | 7.8 | 15.6 | 0.00 | 0.00 | 0.00 | 81 | 1011.4 |
| 20260505201447 | 51 | 313 | 7.0 | 15.6 | 0.00 | 0.00 | 0.00 | 81 | 1011.3 |
| 20260505201031 | 51 | 352 | 7.0 | 13.9 | 0.00 | 0.00 | 0.00 | 81 | 1011.3 |
| 20260505195946 | 51 | 13 | 7.8 | 13.9 | 0.00 | 0.00 | 0.00 | 81 | 1011.2 |
| 20260505195445 | 52 | 330 | 6.1 | 13.9 | 0.00 | 0.00 | 0.00 | 81 | 1011.2 |
| 20260505195018 | 52 | 335 | 6.1 | 13.0 | 0.00 | 0.00 | 0.00 | 81 | 1011.1 |
| 20260505194041 | 52 | 6 | 7.8 | 14.8 | 0.00 | 0.00 | 0.00 | 81 | 1011.1 |
| 20260505192943 | 52 | 7 | 8.7 | 17.4 | 0.00 | 0.00 | 0.00 | 81 | 1011.0 |
| 20260505192443 | 52 | 335 | 8.7 | 13.9 | 0.00 | 0.00 | 0.00 | 80 | 1010.8 |
| 20260505191942 | 52 | 330 | 8.7 | 15.6 | 0.00 | 0.00 | 0.00 | 80 | 1010.8 |
| 20260505191444 | 53 | 6 | 7.8 | 15.6 | 0.00 | 0.00 | 0.00 | 80 | 1010.8 |
| 20260505190940 | 53 | 12 | 7.0 | 13.0 | 0.00 | 0.00 | 0.00 | 81 | 1010.7 |
| 20260505190514 | 53 | 6 | 6.1 | 13.9 | 0.00 | 0.00 | 0.00 | 81 | 1010.7 |